Location: Limerick
(52.6800°N, 8.6400°W)
Time: 23:58:29
(UTC+00:00)

ISS - All Passes

Search period start: 28 November 2014 00:00
Search period end: 08 December 2014 00:00
Orbit: 407 x 417 km, 51.6° (Epoch: 28 November)

Date Brightness Start Highest point End Pass type
(mag) Time Alt. Az. Time Alt. Az. Time Alt. Az.
28 Nov - 01:28:37 10° WSW 01:31:52 61° SSE 01:35:08 10° E night (unlit)
28 Nov - 03:05:08 10° W 03:08:25 71° S 03:11:43 10° ESE night (unlit)
28 Nov - 04:41:51 10° W 04:44:49 31° SSW 04:47:47 10° SE visible
28 Nov - 23:03:55 10° S 23:05:58 16° SE 23:08:01 10° ESE night (unlit)
29 Nov - 00:38:53 10° WSW 00:42:04 49° SSE 00:45:17 10° E night (unlit)
29 Nov - 02:15:18 10° W 02:18:35 76° S 02:21:53 10° E night (unlit)
29 Nov - 03:51:56 10° W 03:55:04 42° SSW 03:58:12 10° SE night (unlit)
29 Nov - 05:29:37 10° WSW 05:31:05 12° SW 05:32:33 10° SSW visible
29 Nov - 22:15:46 10° SSE 22:16:20 10° SE 22:16:55 10° SE night (unlit)
29 Nov - 23:49:13 10° SW 23:52:17 37° SSE 23:55:22 10° E night (unlit)
30 Nov - 01:25:26 10° W 01:28:44 74° S 01:32:01 10° E night (unlit)
30 Nov - 03:02:02 10° W 03:05:15 54° SSW 03:08:29 10° ESE night (unlit)
30 Nov - 04:39:05 10° W 04:41:26 18° SW 04:43:46 10° S night (unlit)
30 Nov - 22:59:39 10° SSW 23:02:30 27° SSE 23:05:21 10° E night (unlit)
01 Dec - 00:35:33 10° WSW 00:38:50 68° S 00:42:07 10° E night (unlit)
01 Dec - 02:12:07 10° W 02:15:23 65° S 02:18:39 10° ESE night (unlit)
01 Dec - 03:48:54 10° W 03:51:42 25° SSW 03:54:29 10° SSE night (unlit)
01 Dec - 22:10:15 10° SSW 22:12:43 20° SE 22:15:11 10° E night (unlit)
01 Dec - 23:45:41 10° WSW 23:48:55 57° SSE 23:52:10 10° E night (unlit)
02 Dec - 01:22:10 10° W 01:25:28 73° S 01:28:45 10° E night (unlit)
02 Dec - 02:58:50 10° W 03:01:53 35° SSW 03:04:55 10° SE night (unlit)
02 Dec - 21:21:14 10° S 21:22:57 14° SE 21:24:41 10° ESE night (unlit)
02 Dec - 22:55:51 10° SW 22:59:00 45° SSE 23:02:10 10° E night (unlit)
03 Dec - 00:32:12 10° W 00:35:30 76° S 00:38:47 10° E night (unlit)
03 Dec - 02:08:48 10° W 02:11:59 46° SSW 02:15:09 10° SE night (unlit)
03 Dec - 03:46:11 10° WSW 03:48:03 14° SW 03:49:54 10° S night (unlit)
03 Dec - 22:06:05 10° SW 22:09:05 33° SSE 22:12:06 10° E night (unlit)
03 Dec - 23:42:12 10° WSW 23:45:29 73° S 23:48:47 10° E night (unlit)
04 Dec - 01:18:46 10° W 01:22:01 58° SSW 01:25:16 10° ESE night (unlit)
04 Dec - 02:55:43 10° W 02:58:15 21° SSW 03:00:46 10° SSE night (unlit)
04 Dec - 21:16:26 10° SSW 21:19:11 24° SSE 21:21:55 10° E night (unlit)
04 Dec - 22:52:12 10° WSW 22:55:28 64° SSE 22:58:44 10° E night (unlit)
05 Dec - 00:28:44 10° W 00:32:00 69° S 00:35:17 10° ESE night (unlit)
05 Dec - 02:05:27 10° W 02:08:21 29° SSW 02:11:14 10° SSE night (unlit)
05 Dec - 20:27:02 10° S 20:29:17 17° SE 20:31:33 10° E night (unlit)
05 Dec - 22:02:12 10° WSW 22:05:26 52° SSE 22:08:39 10° E night (unlit)
05 Dec - 23:38:39 10° W 23:41:56 75° S 23:45:14 10° E night (unlit)
06 Dec - 01:15:17 10° W 01:18:23 39° SSW 01:21:29 10° SE night (unlit)
06 Dec - 02:53:21 10° WSW 02:54:20 11° SW 02:55:19 10° SSW night (unlit)
06 Dec - 19:38:10 10° SSE 19:39:25 12° SE 19:40:39 10° ESE night (unlit)
06 Dec - 21:12:16 10° SW 21:15:23 40° SSE 21:18:30 10° E night (unlit)
06 Dec - 22:48:32 10° W 22:51:50 75° S 22:55:08 10° E night (unlit)
07 Dec - 00:25:08 10° W 00:28:21 51° SSW 00:31:33 10° ESE night (unlit)
07 Dec - 02:02:18 10° WSW 02:04:27 17° SW 02:06:37 10° S night (unlit)
07 Dec - 20:22:25 10° SW 20:25:21 30° SSE 20:28:17 10° E night (unlit)
07 Dec - 21:58:25 10° WSW 22:01:42 70° S 22:04:59 10° E night (unlit)
07 Dec - 23:34:58 10° W 23:38:14 63° SSW 23:41:30 10° ESE night (unlit)
